This is the latest recevied weather packets stored in our database for station/object IW2NTF-3. If no packets are shown the sender has not sent any weather packets the latest 10 day(s).
| Time | Temp. | Humidity | Pressure | Rain* | Wind** | Luminosity | Snow |
|---|---|---|---|---|---|---|---|
| 1778153043 | 21.11° C | 60% | 1013 hPa | 0 mm | - | 1013 W/m² | - |
| 1778152983 | 21.67° C | 61% | 1013 hPa | 0 mm | - | 225 W/m² | - |
| 1778152923 | 21.67° C | 60% | 1013 hPa | 0 mm | - | 243 W/m² | - |
| 1778152863 | 21.67° C | 60% | 1013 hPa | 0 mm | - | 918 W/m² | - |
| 1778152803 | 21.67° C | 60% | 1013 hPa | 0 mm | - | 918 W/m² | - |
| 1778152743 | 21.67° C | 59% | 1013 hPa | 0 mm | - | 967 W/m² | - |
| 1778152683 | 21.67° C | 60% | 1013 hPa | 0 mm | - | 1004 W/m² | - |
| 1778152624 | 21.67° C | 61% | 1013 hPa | 0 mm | - | 970 W/m² | - |
| 1778152563 | 21.67° C | 61% | 1013.1 hPa | 0 mm | - | 974 W/m² | - |
| 1778152503 | 21.11° C | 61% | 1013.1 hPa | 0 mm | - | 974 W/m² | - |
| 1778152443 | 21.11° C | 61% | 1013.2 hPa | 0 mm | - | 972 W/m² | - |
| 1778152383 | 21.11° C | 61% | 1013.2 hPa | 0 mm | - | 976 W/m² | - |
| 1778152323 | 21.11° C | 62% | 1013.2 hPa | 0 mm | - | 974 W/m² | - |
| 1778152263 | 21.11° C | 61% | 1013.2 hPa | 0 mm | - | 976 W/m² | - |
| 1778152203 | 21.11° C | 62% | 1013.2 hPa | 0 mm | - | 984 W/m² | - |
| 1778152143 | 20.56° C | 61% | 1013.1 hPa | 0 mm | - | 984 W/m² | - |
| 1778152083 | 21.11° C | 60% | 1013.1 hPa | 0 mm | - | 984 W/m² | - |
| 1778152023 | 21.11° C | 60% | 1013.2 hPa | 0 mm | - | 965 W/m² | - |
| 1778151963 | 21.11° C | 60% | 1013.1 hPa | 0 mm | - | 949 W/m² | - |
| 1778151903 | 21.11° C | 61% | 1013.1 hPa | 0 mm | - | 951 W/m² | - |
| 1778151844 | 21.11° C | 60% | 1013.3 hPa | 0 mm | - | 944 W/m² | - |
| 1778151784 | 21.11° C | 61% | 1013.3 hPa | 0 mm | - | 942 W/m² | - |
| 1778151724 | 21.11° C | 60% | 1013.2 hPa | 0 mm | - | 953 W/m² | - |
| 1778151664 | 21.11° C | 61% | 1013.3 hPa | 0 mm | - | 958 W/m² | - |
| 1778151604 | 21.11° C | 62% | 1013.3 hPa | 0 mm | - | 963 W/m² | - |
* Rain latest hour (hover to see other rain measurements)
** Current wind speed in m/s (hover to see current wind gust speed)